EW2670 Weather Reports


Display with metric or nautical units.
time (UTC)temp
F
wind
direction
speed
MPH
gust
MPH
rain 1hr
in
rain 24hr
in
rain mn
in
humidity
%
barometer
mb
20260505173016 36 0.0 0.0 0.06 0.45 0.40 90 1010.6
20260505172516 36 247 1.0 2.0 0.06 0.44 0.39 91 1010.6
20260505172016 36 247 1.0 2.0 0.06 0.44 0.39 91 1010.7
20260505171516 36 247 3.0 5.0 0.06 0.43 0.38 91 1010.9
20260505171015 36 270 3.0 5.0 0.07 0.43 0.38 91 1011.2
20260505170536 36 292 2.0 3.0 0.07 0.42 0.37 91 1011.0
20260505170015 36 292 2.0 3.0 0.07 0.42 0.37 92 1010.8
20260505165536 36 292 2.0 3.0 0.07 0.41 0.36 92 1010.8
20260505165015 36 0.0 2.0 0.08 0.41 0.36 92 1010.6
20260505164516 36 292 1.0 2.0 0.07 0.40 0.35 93 1010.6
20260505164036 36 292 1.0 3.0 0.08 0.40 0.35 93 1010.6
20260505163516 36 0.0 2.0 0.07 0.39 0.34 94 1010.5
20260505163015 35 292 1.0 2.0 0.08 0.39 0.34 93 1010.5
20260505162515 35 292 1.0 3.0 0.08 0.38 0.33 93 1010.6
20260505162056 35 292 1.0 3.0 0.08 0.38 0.33 94 1010.6
20260505161516 35 292 1.0 3.0 0.08 0.37 0.32 94 1010.6
20260505161015 34 292 1.0 3.0 0.07 0.36 0.31 94 1010.6
20260505160515 34 292 1.0 2.0 0.07 0.35 0.30 94 1010.6
20260505153017 33 292 1.0 2.0 0.05 0.31 0.26 94 1010.8
20260505152518 33 292 1.0 2.0 0.05 0.30 0.25 94 1010.7
20260505152018 33 0.0 2.0 0.05 0.30 0.25 94 1010.7
20260505151537 33 292 1.0 2.0 0.05 0.29 0.24 94 1010.7
20260505151017 33 292 1.0 3.0 0.05 0.29 0.24 94 1010.6
20260505150517 33 292 1.0 2.0 0.04 0.28 0.23 94 1010.6
20260505140637 33 0.0 0.0 0.02 0.24 0.19 94 1010.4
20260505125017 32 315 1.0 4.0 0.01 0.22 0.17 93 1009.6
20260505124517 32 337 1.0 3.0 0.01 0.22 0.17 93 1009.5
20260505124017 32 315 1.0 3.0 0.02 0.22 0.17 93 1009.5
20260505123517 32 315 1.0 3.0 0.02 0.22 0.17 93 1009.5
20260505123017 32 315 1.0 4.0 0.02 0.22 0.17 93 1009.5
20260505122517 33 315 2.0 4.0 0.03 0.22 0.17 93 1009.5
20260505122017 33 315 2.0 4.0 0.03 0.22 0.17 93 1009.4
20260505121517 33 337 2.0 4.0 0.03 0.22 0.17 93 1009.3
20260505121017 33 315 2.0 5.0 0.03 0.22 0.17 92 1009.3
20260505120518 33 315 2.0 4.0 0.03 0.22 0.17 92 1009.3
20260505120017 33 315 2.0 5.0 0.02 0.21 0.16 92 1009.3
20260505115538 33 315 2.0 4.0 0.03 0.21 0.16 92 1009.3
20260505115037 33 337 3.0 6.0 0.03 0.21 0.16 92 1009.3
20260505114557 33 337 3.0 5.0 0.04 0.21 0.16 92 1009.4
20260505114017 33 315 2.0 5.0 0.03 0.20 0.15 92 1009.2
20260505113517 33 315 2.0 7.0 0.03 0.20 0.15 92 1009.1
20260505113017 33 0 1.0 3.0 0.03 0.20 0.15 92 1009.0
20260505112537 33 337 2.0 4.0 0.03 0.19 0.13 92 1008.8
20260505112017 33 337 2.0 5.0 0.03 0.19 0.13 91 1008.8
20260505111517 33 315 2.0 5.0 0.04 0.19 0.13 91 1008.7
20260505111037 33 315 3.0 5.0 0.04 0.19 0.13 90 1008.6
20260505110517 34 315 4.0 7.0 0.05 0.19 0.13 90 1008.5
20260505102017 36 337 4.0 9.0 0.04 0.16 0.10 89 1008.6
20260505101517 37 315 4.0 9.0 0.03 0.15 0.10 89 1008.6
20260505101017 37 337 7.0 14.0 0.03 0.15 0.10 88 1008.7
20260505100517 38 337 6.0 12.0 0.02 0.13 0.09 89 1008.5
20260505100017 38 315 6.0 12.0 0.01 0.12 0.08 89 1008.5
20260505095518 39 315 7.0 12.0 0.01 0.12 0.08 90 1008.4
20260505095017 40 337 5.0 8.0 0.01 0.12 0.08 90 1008.3
20260505094517 40 337 5.0 11.0 0.02 0.12 0.08 90 1008.2
20260505094017 40 337 4.0 7.0 0.02 0.12 0.08 90 1008.3
20260505093517 40 337 5.0 10.0 0.03 0.12 0.08 90 1008.2
20260505093017 41 337 6.0 13.0 0.02 0.11 0.07 90 1008.2
20260505092517 41 337 7.0 13.0 0.03 0.11 0.07 91 1008.0
20260505092017 41 337 6.0 11.0 0.04 0.11 0.07 90 1008.0
20260505091517 41 0 6.0 10.0 0.04 0.11 0.07 91 1007.8
20260505091037 41 337 6.0 11.0 0.05 0.11 0.07 90 1007.9
20260505090517 41 337 5.0 10.0 0.06 0.11 0.07 90 1008.0
20260505090017 41 337 5.0 9.0 0.06 0.11 0.07 90 1008.0
20260505085516 41 315 6.0 14.0 0.06 0.11 0.07 90 1008.1
20260505085018 42 337 5.0 9.0 0.06 0.11 0.07 90 1007.9
20260505084517 42 337 5.0 10.0 0.06 0.10 0.06 90 1007.8
20260505084017 42 337 5.0 10.0 0.06 0.10 0.06 90 1008.1
20260505083517 42 337 5.0 10.0 0.05 0.10 0.05 89 1008.0
20260505083016 42 337 4.0 11.0 0.05 0.10 0.05 89 1008.0
20260505082536 42 337 4.0 9.0 0.04 0.09 0.04 89 1008.0
20260505082017 42 315 4.0 9.0 0.03 0.08 0.03 89 1008.2
20260505081517 42 315 5.0 11.0 0.03 0.08 0.03 88 1008.2
20260505081017 42 315 5.0 9.0 0.02 0.07 0.02 88 1008.3
20260505080516 42 315 6.0 11.0 0.01 0.06 0.01 88 1008.2
20260505080016 42 315 5.0 10.0 0.01 0.06 0.01 88 1008.3
20260505075516 42 315 5.0 10.0 0.01 0.06 0.01 88 1008.4
20260505075016 42 315 5.0 11.0 0.01 0.06 0.01 88 1008.5
20260505074517 43 315 5.0 11.0 0.00 0.05 0.00 88 1008.6
20260505074017 43 315 5.0 8.0 0.00 0.05 0.00 87 1008.5
20260505073517 43 315 4.0 10.0 0.00 0.05 0.00 87 1008.5
20260505073016 43 337 6.0 10.0 0.00 0.05 0.00 86 1008.5
20260505072516 43 315 6.0 9.0 0.00 0.05 0.00 85 1008.5
20260505072017 43 315 5.0 9.0 0.00 0.05 0.00 85 1008.6
20260505071516 43 315 4.0 11.0 0.00 0.05 0.00 84 1008.6
20260505071017 44 315 7.0 14.0 0.00 0.05 0.00 83 1008.4
20260505070517 44 315 6.0 10.0 0.00 0.05 0.00 83 1008.5
20260505070016 44 315 5.0 9.0 0.00 0.05 0.00 83 1008.4
20260505065516 45 315 6.0 13.0 0.00 0.05 0.00 83 1008.4
20260505065036 45 315 4.0 9.0 0.00 0.05 0.00 82 1008.5
20260505064537 46 315 7.0 15.0 0.00 0.05 0.00 82 1008.4
20260505064017 46 315 5.0 14.0 0.00 0.05 0.00 84 1008.4
20260505063517 46 292 4.0 14.0 0.00 0.05 0.00 86 1008.5
20260505063016 47 292 1.0 3.0 0.00 0.05 0.00 87 1008.0
20260505062537 47 292 1.0 2.0 0.00 0.05 0.00 86 1007.8
20260505062017 47 0.0 0.0 0.00 0.05 0.00 85 1007.8
20260505061517 47 0.0 0.0 0.00 0.05 0.00 86 1007.8
20260505061017 47 0.0 0.0 0.00 0.05 0.00 86 1007.7
20260505060516 47 0.0 0.0 0.00 0.05 0.00 86 1007.7
20260505060024 46 0.0 0.0 0.00 0.05 0.00 87 1007.6
20260505055517 46 0.0 1.0 0.00 0.05 0.05 88 1007.5
20260505055018 46 0.0 0.0 0.00 0.05 0.05 89 1007.5
20260505054518 45 0.0 0.0 0.00 0.05 0.05 88 1007.5
20260505054017 45 0.0 0.0 0.00 0.05 0.05 88 1007.3
20260505053517 46 0.0 0.0 0.00 0.05 0.05 86 1007.0
20260505053037 46 0.0 0.0 0.00 0.05 0.05 85 1007.0
20260505052517 46 0.0 0.0 0.00 0.05 0.05 85 1007.0
20260505052017 46 0.0 0.0 0.00 0.05 0.05 84 1006.8
20260505051517 46 0.0 2.0 0.00 0.05 0.05 85 1006.8
20260505051018 46 0.0 1.0 0.00 0.05 0.05 85 1006.7
20260505050517 46 180 1.0 2.0 0.00 0.05 0.05 86 1006.7
20260505041517 47 180 2.0 3.0 0.01 0.05 0.05 83 1006.9
20260505041037 47 180 3.0 5.0 0.01 0.05 0.05 82 1006.8
20260505040517 48 202 4.0 5.0 0.02 0.05 0.05 82 1006.8
20260505040037 48 180 3.0 6.0 0.02 0.05 0.05 82 1006.8
20260505035517 48 180 3.0 6.0 0.03 0.05 0.05 82 1006.6
20260505035017 48 180 2.0 4.0 0.03 0.05 0.05 83 1006.6
20260505034517 48 180 3.0 7.0 0.03 0.05 0.05 83 1006.6
20260505034017 48 202 5.0 8.0 0.03 0.05 0.05 83 1006.6
20260505033517 48 202 5.0 7.0 0.03 0.05 0.05 84 1006.6
20260505033017 49 180 5.0 7.0 0.04 0.05 0.05 84 1006.5
20260505032537 49 180 6.0 8.0 0.03 0.04 0.04 83 1006.4
20260505032017 49 180 6.0 9.0 0.03 0.04 0.04 82 1006.4
20260505031517 49 180 5.0 8.0 0.03 0.04 0.04 81 1006.3
20260505031017 49 180 5.0 8.0 0.03 0.04 0.04 81 1006.2
20260505030517 49 180 5.0 9.0 0.02 0.03 0.03 80 1006.1
20260505030017 50 180 7.0 10.0 0.02 0.03 0.03 79 1006.0
20260505025518 50 180 7.0 11.0 0.01 0.02 0.02 78 1006.0
20260505025037 50 180 6.0 9.0 0.01 0.02 0.02 77 1005.8
20260505024517 50 202 7.0 11.0 0.01 0.02 0.02 75 1005.6
20260505024018 51 202 8.0 12.0 0.01 0.02 0.02 72 1005.4
20260505023517 51 202 8.0 12.0 0.01 0.02 0.02 71 1005.4
20260505023017 51 202 6.0 7.0 0.00 0.01 0.01 72 1005.2
20260505022517 51 202 4.0 6.0 0.00 0.01 0.01 71 1005.1
20260505022017 51 225 4.0 5.0 0.00 0.01 0.01 71 1005.2
20260505021517 51 247 4.0 6.0 0.00 0.01 0.01 70 1005.0
20260505021017 51 247 5.0 8.0 0.00 0.01 0.01 70 1005.0
20260505020517 51 247 4.0 7.0 0.00 0.01 0.01 71 1005.0
20260505020059 50 247 4.0 5.0 0.00 0.01 0.01 73 1005.0
20260505015517 50 270 2.0 5.0 0.00 0.01 0.01 73 1005.1
20260505015017 50 270 3.0 5.0 0.00 0.01 0.01 74 1004.9
20260505014517 50 292 2.0 4.0 0.00 0.01 0.01 75 1004.7
20260505014037 50 292 2.0 6.0 0.00 0.01 0.01 74 1004.7
20260505013517 51 270 5.0 9.0 0.00 0.01 0.01 72 1004.5
20260505013017 51 270 5.0 11.0 0.00 0.01 0.01 70 1004.5
20260505012517 52 270 6.0 10.0 0.00 0.01 0.01 69 1004.5
20260505012017 52 292 4.0 8.0 0.00 0.01 0.01 69 1004.5
20260505011517 52 292 5.0 8.0 0.00 0.01 0.01 69 1004.6
20260505011138 52 270 5.0 8.0 0.00 0.01 0.01 67 1004.6
20260505010517 53 270 7.0 13.0 0.00 0.01 0.01 67 1004.4
20260505010017 53 270 9.0 14.0 0.00 0.01 0.01 65 1004.5
20260505005517 54 270 8.0 16.0 0.00 0.01 0.01 63 1004.4
20260505005017 54 270 7.0 13.0 0.00 0.01 0.01 61 1004.2
20260505004517 54 270 5.0 8.0 0.00 0.01 0.01 61 1004.3
20260505004017 55 292 4.0 8.0 0.00 0.01 0.01 60 1004.1
20260505003518 55 292 5.0 9.0 0.00 0.01 0.01 59 1004.0
20260505003016 56 292 5.0 13.0 0.00 0.01 0.01 59 1003.9
20260505002517 56 292 2.0 5.0 0.00 0.01 0.01 57 1003.6
20260505002017 57 315 1.0 6.0 0.00 0.01 0.01 54 1003.2
20260505001537 57 337 3.0 6.0 0.00 0.01 0.01 55 1003.2
20260505001016 57 315 2.0 5.0 0.00 0.01 0.01 55 1003.2
20260505000517 58 292 3.0 7.0 0.00 0.01 0.01 54 1003.2
20260505000017 58 292 1.0 5.0 0.00 0.01 0.01 57 1003.0
20260504235517 58 337 1.0 4.0 0.01 0.01 0.01 56 1003.1
20260504235017 58 0.0 2.0 0.01 0.01 0.01 60 1003.1
20260504234537 58 315 1.0 3.0 0.01 0.01 0.01 63 1003.1
20260504234017 58 337 1.0 4.0 0.01 0.01 0.01 60 1002.9
20260504233518 58 0 1.0 4.0 0.01 0.01 0.01 58 1002.8
20260504233017 58 45 1.0 3.0 0.01 0.01 0.01 54 1002.6
20260504232556 58 292 1.0 2.0 0.01 0.01 0.01 57 1003.0
20260504232037 57 292 1.0 2.0 0.01 0.01 0.01 58 1003.1
20260504231516 57 0.0 0.0 0.01 0.01 0.01 66 1003.2
20260504231017 56 292 1.0 4.0 0.01 0.01 0.01 66 1003.2
20260504230536 55 337 2.0 3.0 0.01 0.01 0.01 66 1003.0
20260504230037 55 270 4.0 6.0 0.01 0.01 0.01 59 1003.0
20260504225517 57 247 6.0 11.0 0.00 0.00 0.00 56 1003.3
20260504225016 60 247 9.0 14.0 0.00 0.00 0.00 50 1003.0
20260504224517 60 270 6.0 11.0 0.00 0.00 0.00 42 1002.7
20260504224036 60 270 3.0 6.0 0.00 0.00 0.00 41 1002.4
20260504223516 60 292 3.0 7.0 0.00 0.00 0.00 41 1002.3
20260504223016 61 315 2.0 4.0 0.00 0.00 0.00 41 1002.0
20260504222537 61 0 2.0 4.0 0.00 0.00 0.00 39 1002.0
20260504222016 61 337 4.0 8.0 0.00 0.00 0.00 39 1002.1
20260504221517 62 337 5.0 8.0 0.00 0.00 0.00 38 1002.0
20260504221016 62 0 6.0 9.0 0.00 0.00 0.00 39 1001.8
20260504220537 62 0 5.0 9.0 0.00 0.00 0.00 39 1001.6
20260504220036 63 0 5.0 10.0 0.00 0.00 0.00 40 1001.3
20260504215517 63 0 5.0 10.0 0.00 0.00 0.00 39 1001.4
20260504215016 63 22 3.0 6.0 0.00 0.00 0.00 40 1001.5
20260504214517 62 45 4.0 9.0 0.00 0.00 0.00 40 1001.7
20260504214017 62 45 5.0 9.0 0.00 0.00 0.00 42 1001.9
20260504213516 62 67 5.0 11.0 0.00 0.00 0.00 43 1002.1
20260504213036 62 67 5.0 13.0 0.00 0.00 0.00 41 1002.3
20260504212516 61 67 7.0 13.0 0.00 0.00 0.00 47 1002.6
20260504212016 60 90 6.0 11.0 0.00 0.00 0.00 47 1002.7
20260504211516 59 22 5.0 12.0 0.00 0.00 0.00 44 1002.9
20260504211036 59 0 6.0 15.0 0.00 0.00 0.00 43 1003.2
20260504210517 60 337 8.0 15.0 0.00 0.00 0.00 46 1003.3
20260504210016 61 337 6.0 12.0 0.00 0.00 0.00 39 1003.2
20260504205516 61 315 4.0 9.0 0.00 0.00 0.00 39 1002.9
20260504205016 61 337 3.0 8.0 0.00 0.00 0.00 40 1003.0
20260504204516 62 337 5.0 13.0 0.00 0.00 0.00 38 1002.8
20260504204016 63 337 7.0 12.0 0.00 0.00 0.00 34 1002.4
20260504203516 63 315 5.0 12.0 0.00 0.00 0.00 33 1002.3
20260504203017 63 337 7.0 12.0 0.00 0.00 0.00 33 1002.0
20260504202516 63 337 9.0 24.0 0.00 0.00 0.00 33 1001.8
20260504202016 64 337 12.0 23.0 0.00 0.00 0.00 32 1001.3
20260504201516 65 337 11.0 20.0 0.00 0.00 0.00 31 1001.4
20260504201017 68 315 12.0 21.0 0.00 0.00 0.00 28 1001.7
20260504200516 70 315 7.0 14.0 0.00 0.00 0.00 24 1001.6
20260504200016 71 315 6.0 13.0 0.00 0.00 0.00 24 1001.7
20260504195536 72 337 5.0 16.0 0.00 0.00 0.00 24 1001.7
20260504195016 71 270 6.0 14.0 0.00 0.00 0.00 25 1001.6
20260504194516 72 270 7.0 12.0 0.00 0.00 0.00 25 1001.6
20260504194018 73 270 7.0 13.0 0.00 0.00 0.00 23 1001.6
20260504193516 73 270 7.0 13.0 0.00 0.00 0.00 25 1001.6
20260504193037 73 247 8.0 14.0 0.00 0.00 0.00 24 1001.6
20260504192516 73 270 9.0 22.0 0.00 0.00 0.00 23 1001.8
20260504192016 74 270 11.0 22.0 0.00 0.00 0.00 23 1001.8
20260504191517 73 270 11.0 22.0 0.00 0.00 0.00 25 1001.9
20260504191016 73 247 8.0 15.0 0.00 0.00 0.00 23 1001.9
20260504190516 72 247 8.0 14.0 0.00 0.00 0.00 24 1002.0
20260504190016 72 247 10.0 16.0 0.00 0.00 0.00 24 1001.8
20260504185536 72 247 13.0 19.0 0.00 0.00 0.00 23 1002.0
20260504185016 72 247 12.0 17.0 0.00 0.00 0.00 23 1002.0
20260504184516 72 225 13.0 17.0 0.00 0.00 0.00 22 1002.0
20260504184016 73 225 12.0 20.0 0.00 0.00 0.00 23 1002.0
20260504183516 73 225 13.0 18.0 0.00 0.00 0.00 23 1002.1
20260504183016 72 247 12.0 18.0 0.00 0.00 0.00 23 1002.2
20260504182516 72 225 14.0 18.0 0.00 0.00 0.00 24 1002.2
20260504182016 71 225 13.0 20.0 0.00 0.00 0.00 25 1002.4
20260504181536 71 225 14.0 21.0 0.00 0.00 0.00 24 1002.4
20260504181016 70 247 13.0 18.0 0.00 0.00 0.00 24 1002.4
20260504180516 71 225 12.0 21.0 0.00 0.00 0.00 24 1002.4
20260504180016 70 225 13.0 19.0 0.00 0.00 0.00 25 1002.5
20260504175516 70 225 13.0 18.0 0.00 0.00 0.00 26 1002.5
20260504175137 69 225 11.0 16.0 0.00 0.00 0.00 26 1002.7
20260504174516 69 202 10.0 14.0 0.00 0.00 0.00 26 1002.9
20260504174016 68 180 6.0 12.0 0.00 0.00 0.00 27 1003.1
20260504173516 67 202 3.0 7.0 0.00 0.00 0.00 28 1003.2